{"data":{"norad_id":62694,"intl_designator":"2025-009CP","name":"LEMUR-2-WILSON","alt_names":[],"object_type":"PAYLOAD","status":"ACTIVE","operator":null,"country":"US","launch_date":"2025-01-14","launch_site_code":"AFWTR","launch_vehicle":null,"mission":null,"orbit_class":"UNKNOWN","rcs_meters":null,"size_class":null,"mass_kg":null,"dimensions":null,"purposes":["earth_obs"],"wikipedia_slug":null,"has_3d_model":false,"image_url":null,"decayed_at":null,"tle_current":{"epoch":"2026-09-19T10:43:07.225824Z","epoch_age_seconds":105540,"freshness":"FRESH","line1":"1 62694U 25009CP  26262.44661141  .00001414  00000+0  13289-3 0  9993","line2":"2 62694  97.6962 339.2435 0004759  86.3851 273.7914 14.95491919 91446","mean_motion":14.95491919,"eccentricity":0.0004759,"inclination_deg":97.6962,"raan_deg":339.2435,"arg_perigee_deg":86.3851,"mean_anomaly_deg":273.7914,"bstar":0.00013289,"rev_number":9144,"period_min":96.289386903735,"perigee_km":577.53451901931,"apogee_km":584.15807932346,"semimajor_km":6958.9832991714,"source":"CELESTRAK","updated_at":"2026-09-20T09:00:34.872612Z"}}}